Weather History for Savoonga, AK

Change the Weather History Date:

Sunday, October 7, 2012

  Actual Average Record
Temperature  
Mean Temperature 32 °F -  
Max Temperature 33 °F 35 °F 44 °F (1997)
Min Temperature 30 °F 30 °F 26 °F (2000)
Degree Days  
Heating Degree Days 34    
Moisture  
Dew Point 26 °F    
Average Humidity 76    
Maximum Humidity 87    
Minimum Humidity 65    
Precipitation  
Precipitation 0.00 in - - ()
Sea Level Pressure  
Sea Level Pressure 30.37 in    
Wind  
Wind Speed 14 mph (North)    
Max Wind Speed 18 mph    
Max Gust Speed 24 mph    
Visibility 10 miles    
Events      
Averages and records for this station are not official NWS values.
T = Trace of Precipitation, MM = Missing Value Source: NWS Daily Summary

Daily Weather History Graph

Daily Weather History Graph

Search for Another Location

Airport:

Trip Planner

Search our weather history database for the weather conditions in past years. The results will help you decide how hot, cold, wet, or windy it might be!

Date:

Astronomy

Oct. 07, 2012 Rise Set
Actual Time 9:49 AM AKDT 8:27 PM AKDT
Civil Twilight 9:02 AM AKDT 9:14 PM AKDT
Nautical Twilight 8:08 AM AKDT 10:09 PM AKDT
Astronomical Twilight 7:11 AM AKDT 11:05 PM AKDT
Moon No Moon Rise 6:04 PM AKDT (10/7)
Length of Visible Light 12h 12m
Length of Day
10h 38m
Waning Gibbous, 55% of the Moon is Illuminated
Oct 7
Waning Gibbous
Oct 7
Last Quarter
Oct 15
New
Oct 21
First Quarter
Oct 29
Full

Hourly Weather History & Observations

Time (AKDT) Temp. Windchill Dew Point Humidity Pressure Visibility Wind Dir Wind Speed Gust Speed Precip Events Conditions
12:16 AM 33.8 °F 23.2 °F 26.6 °F 75% 30.18 in 10.0 mi North 17.3 mph 21.9 mph N/A   Overcast
12:36 AM 33.8 °F 23.2 °F 26.6 °F 75% 30.19 in 10.0 mi North 17.3 mph - N/A   Overcast
12:56 AM 32.0 °F 21.6 °F 28.4 °F 87% 30.20 in 7.0 mi North 15.0 mph - N/A   Overcast
1:16 AM 33.8 °F 25.3 °F 26.6 °F 75% 30.21 in 10.0 mi North 11.5 mph - N/A   Overcast
1:36 AM 32.0 °F 21.6 °F 26.6 °F 80% 30.21 in 10.0 mi North 15.0 mph 20.7 mph N/A   Overcast
1:56 AM 33.8 °F 23.2 °F 26.6 °F 75% 30.21 in 10.0 mi North 17.3 mph 21.9 mph N/A   Overcast
2:16 AM 33.8 °F 23.9 °F 26.6 °F 75% 30.22 in 10.0 mi North 15.0 mph 23.0 mph N/A   Overcast
2:36 AM 32.0 °F 21.6 °F 26.6 °F 80% 30.23 in 10.0 mi North 15.0 mph - N/A   Overcast
2:56 AM 33.8 °F 24.3 °F 26.6 °F 75% 30.23 in 10.0 mi North 13.8 mph 20.7 mph N/A   Overcast
3:16 AM 32.0 °F 20.8 °F 26.6 °F 80% 30.24 in 10.0 mi North 17.3 mph - N/A   Overcast
3:36 AM 33.8 °F 24.3 °F 26.6 °F 75% 30.25 in 10.0 mi North 13.8 mph - N/A   Overcast
3:56 AM 33.8 °F 24.3 °F 28.4 °F 81% 30.26 in 10.0 mi North 13.8 mph - N/A   Overcast
4:16 AM 33.8 °F 23.9 °F 26.6 °F 75% 30.27 in 10.0 mi North 15.0 mph - N/A   Overcast
4:36 AM 33.8 °F 24.3 °F 28.4 °F 81% 30.27 in 10.0 mi North 13.8 mph 18.4 mph N/A   Overcast
4:56 AM 33.8 °F 23.9 °F 26.6 °F 75% 30.28 in 10.0 mi North 15.0 mph - N/A   Overcast
5:16 AM 32.0 °F 22.1 °F 28.4 °F 87% 30.29 in 10.0 mi North 13.8 mph - N/A   Overcast
5:36 AM 33.8 °F 23.9 °F 24.8 °F 70% 30.30 in 10.0 mi North 15.0 mph - N/A   Overcast
5:56 AM 32.0 °F 21.2 °F 26.6 °F 80% 30.30 in 10.0 mi North 16.1 mph - N/A   Overcast
6:16 AM 33.8 °F 23.9 °F 24.8 °F 70% 30.32 in 10.0 mi North 15.0 mph 19.6 mph N/A   Overcast
6:36 AM 30.2 °F 19.3 °F 26.6 °F 86% 30.32 in 10.0 mi North 15.0 mph - N/A   Overcast
6:56 AM 32.0 °F 23.0 °F 24.8 °F 75% 30.32 in 10.0 mi North 11.5 mph - N/A   Overcast
7:16 AM 30.2 °F 20.8 °F 26.6 °F 86% 30.33 in 10.0 mi North 11.5 mph - N/A   Overcast
7:36 AM 33.8 °F 25.8 °F 24.8 °F 70% 30.33 in 10.0 mi North 10.4 mph - N/A   Overcast
7:56 AM 30.2 °F 20.2 °F 26.6 °F 86% 30.33 in 10.0 mi North 12.7 mph 17.3 mph N/A   Overcast
8:16 AM 32.0 °F 23.6 °F 24.8 °F 75% 30.33 in 10.0 mi North 10.4 mph - N/A   Overcast
8:36 AM 30.2 °F 21.3 °F 24.8 °F 80% 30.35 in 10.0 mi North 10.4 mph - N/A   Overcast
8:56 AM 32.0 °F 24.8 °F 24.8 °F 75% 30.35 in 10.0 mi North 8.1 mph - N/A   Overcast
9:36 AM 32.0 °F 24.2 °F 24.8 °F 75% 30.36 in 10.0 mi NE 9.2 mph - N/A   Overcast
9:56 AM 33.8 °F 25.3 °F 24.8 °F 70% 30.37 in 10.0 mi North 11.5 mph - N/A   Overcast
10:16 AM 32.0 °F 23.6 °F 24.8 °F 75% 30.37 in 10.0 mi NNE 10.4 mph - N/A   Overcast
10:36 AM 33.8 °F 24.3 °F 26.6 °F 75% 30.38 in 10.0 mi North 13.8 mph - N/A   Overcast
10:56 AM 32.0 °F 22.5 °F 26.6 °F 80% 30.38 in 10.0 mi North 12.7 mph - N/A   Overcast
11:16 AM 32.0 °F 22.5 °F 26.6 °F 80% 30.39 in 10.0 mi North 12.7 mph - N/A   Overcast
11:36 AM 33.8 °F 23.9 °F 26.6 °F 75% 30.39 in 10.0 mi NNE 15.0 mph - N/A   Overcast
11:56 AM 32.0 °F 22.1 °F 26.6 °F 80% 30.40 in 10.0 mi North 13.8 mph - N/A   Overcast
12:16 PM 33.8 °F 23.2 °F 26.6 °F 75% 30.40 in 10.0 mi NNE 17.3 mph - N/A   Overcast
12:36 PM 32.0 °F 22.1 °F 26.6 °F 80% 30.41 in 10.0 mi NNE 13.8 mph - N/A   Overcast
12:56 PM 32.0 °F 22.5 °F 26.6 °F 80% 30.42 in 10.0 mi North 12.7 mph 16.1 mph N/A   Overcast
1:16 PM 33.8 °F 24.8 °F 26.6 °F 75% 30.42 in 10.0 mi North 12.7 mph - N/A   Overcast
1:36 PM 33.8 °F 24.8 °F 26.6 °F 75% 30.42 in 10.0 mi North 12.7 mph - N/A   Overcast
1:56 PM 33.8 °F 25.3 °F 24.8 °F 70% 30.43 in 10.0 mi North 11.5 mph - N/A   Overcast
2:16 PM 33.8 °F 25.3 °F 26.6 °F 75% 30.44 in 10.0 mi North 11.5 mph 17.3 mph N/A   Overcast
2:36 PM 33.8 °F 24.8 °F 24.8 °F 70% 30.44 in 10.0 mi NNE 12.7 mph 18.4 mph N/A   Overcast
2:56 PM 33.8 °F 25.3 °F 24.8 °F 70% 30.44 in 10.0 mi North 11.5 mph - N/A   Overcast
3:16 PM 33.8 °F 27.0 °F 23.0 °F 65% 30.44 in 10.0 mi NNE 8.1 mph - N/A   Overcast
3:36 PM 33.8 °F 25.3 °F 24.8 °F 70% 30.44 in 10.0 mi NNE 11.5 mph - N/A   Overcast
3:56 PM 33.8 °F 24.3 °F 24.8 °F 70% 30.44 in 10.0 mi North 13.8 mph - N/A   Overcast
4:16 PM 32.0 °F 22.1 °F 24.8 °F 75% 30.44 in 10.0 mi North 13.8 mph 18.4 mph N/A   Overcast
4:36 PM 32.0 °F 22.5 °F 24.8 °F 75% 30.44 in 10.0 mi NNE 12.7 mph - N/A   Overcast
4:56 PM 32.0 °F 22.5 °F 24.8 °F 75% 30.44 in 10.0 mi North 12.7 mph - N/A   Overcast
5:16 PM 32.0 °F 22.5 °F 24.8 °F 75% 30.44 in 10.0 mi North 12.7 mph - N/A   Overcast
5:36 PM 32.0 °F 21.2 °F 23.0 °F 69% 30.44 in 10.0 mi North 16.1 mph 20.7 mph N/A   Overcast
5:56 PM 32.0 °F 22.5 °F 24.8 °F 75% 30.44 in 10.0 mi NNE 12.7 mph - N/A   Overcast
6:16 PM 32.0 °F 22.1 °F 23.0 °F 69% 30.44 in 10.0 mi North 13.8 mph 18.4 mph N/A   Overcast
6:36 PM 32.0 °F 23.0 °F 23.0 °F 69% 30.44 in 10.0 mi North 11.5 mph - N/A   Overcast
6:56 PM 32.0 °F 23.0 °F 23.0 °F 69% 30.44 in 10.0 mi North 11.5 mph - N/A   Overcast
7:16 PM 32.0 °F 22.5 °F 24.8 °F 75% 30.44 in 10.0 mi North 12.7 mph 18.4 mph N/A   Overcast
7:36 PM 32.0 °F 21.6 °F 24.8 °F 75% 30.44 in 10.0 mi North 15.0 mph - N/A   Overcast
7:56 PM 32.0 °F 22.1 °F 24.8 °F 75% 30.45 in 10.0 mi North 13.8 mph - N/A   Overcast
8:16 PM 32.0 °F 22.5 °F 24.8 °F 75% 30.45 in 10.0 mi North 12.7 mph 18.4 mph N/A   Overcast
8:36 PM 32.0 °F 22.1 °F 24.8 °F 75% 30.46 in 10.0 mi North 13.8 mph - N/A   Mostly Cloudy
8:56 PM 32.0 °F 22.1 °F 24.8 °F 75% 30.46 in 10.0 mi North 13.8 mph - N/A   Overcast
9:16 PM 32.0 °F 21.2 °F 24.8 °F 75% 30.46 in 10.0 mi North 16.1 mph 19.6 mph N/A   Overcast
9:36 PM 32.0 °F 21.6 °F 26.6 °F 80% 30.46 in 10.0 mi North 15.0 mph - N/A   Overcast
9:56 PM 32.0 °F 22.1 °F 26.6 °F 80% 30.47 in 10.0 mi North 13.8 mph 19.6 mph N/A   Overcast
10:16 PM 32.0 °F 21.2 °F 24.8 °F 75% 30.47 in 10.0 mi North 16.1 mph 23.0 mph N/A   Overcast
10:36 PM 33.8 °F 23.2 °F 24.8 °F 70% 30.47 in 10.0 mi North 17.3 mph - N/A   Overcast
10:56 PM 32.0 °F 20.5 °F 26.6 °F 80% 30.47 in 10.0 mi North 18.4 mph 21.9 mph N/A   Overcast
11:16 PM 32.0 °F 21.2 °F 26.6 °F 80% 30.48 in 10.0 mi North 16.1 mph 23.0 mph N/A   Overcast
11:36 PM 32.0 °F 20.8 °F 26.6 °F 80% 30.48 in 10.0 mi North 17.3 mph 21.9 mph N/A   Overcast
11:56 PM 32.0 °F 21.2 °F 26.6 °F 80% 30.48 in 10.0 mi NNE 16.1 mph 24.2 mph N/A   Overcast